Lapse_Rate
3.2 3.3 3.9 3.8 2.6 2.6 3.0 2.6 2.4 2.0 2.4 2.3 1.9 1.5 0.7 -0.1 -1.0 -1.7 -2.2 -2.8 -3.2 -3.3 -3.0 -3.4 -3.9 -3.9 1.2 3.8 5.7 4.6 1.9 2.2 0.5 2.9 3.6 2.4 2.0 4.5 6.5 5.7 6.0 6.5 6.1 5.5 5.0 4.3 4.6
3.3 3.3 2.9 3.9 3.6 2.7 2.9 2.8 2.5 2.5 1.8 2.0 2.1 1.8 0.8 0.2 -0.8 -1.7 -2.2 -3.0 -3.2 -3.3 -3.3 -3.3 -3.5 -3.1 3.8 5.7 5.5 3.2 0.3 2.8 3.3 3.4 3.1 3.4 2.6 4.1 4.9 5.7 6.1 5.8 5.9 5.6 4.9 4.9 5.3
3.9 3.1 2.5 2.8 3.5 3.8 3.5 3.2 2.9 2.4 2.1 2.0 1.6 1.8 1.4 0.4 -0.7 -1.6 -2.2 -3.1 -3.5 -3.1 -3.1 -3.0 -3.1 -1.0 4.2 5.7 4.1 2.5 1.8 2.8 2.9 3.4 2.7 4.1 3.3 3.1 5.0 6.1 6.3 5.4 6.5 6.0 5.8 5.6 6.1
4.9 3.9 3.4 2.7 2.6 3.3 3.4 3.3 3.1 2.7 1.9 1.6 1.9 1.2 1.3 1.0 -0.6 -1.8 -2.2 -3.0 -3.3 -2.8 -1.7 -1.5 -1.9 2.4 5.1 5.9 4.7 3.7 3.2 4.2 3.3 3.0 2.3 3.3 3.2 3.1 4.9 5.1 5.4 6.5 6.5 6.5 6.5 6.2 5.9
6.9 5.7 4.6 3.9 2.9 2.5 2.5 2.9 3.1 3.0 1.9 1.1 1.2 1.5 1.1 1.0 -0.0 -1.4 -2.2 -2.9 -2.4 -0.5 0.1 1.1 3.7 4.5 6.0 5.0 4.9 3.2 3.3 5.0 4.4 4.2 4.2 4.8 3.5 4.6 5.2 6.5 6.5 6.5 6.5 6.5 6.5 5.7 6.4
7.8 7.9 6.8 5.9 4.8 3.1 2.4 2.2 2.6 2.3 1.8 1.4 0.8 1.2 1.2 0.6 0.2 -0.6 -2.5 -1.5 2.1 1.9 2.1 3.3 3.0 4.5 4.9 4.9 4.0 3.8 4.5 5.5 5.3 5.3 4.2 3.4 2.9 6.4 6.5 6.5 6.5 6.5 6.5 6.5 6.5 6.5 6.5
7.8 7.6 7.7 7.3 6.5 4.8 2.9 2.9 1.8 2.0 1.8 1.5 0.9 0.7 1.1 0.8 0.2 0.3 -3.0 -0.6 0.3 3.1 1.7 5.1 5.1 5.3 5.3 4.2 4.4 4.7 3.4 5.3 4.7 3.1 6.5 5.3 6.5 6.5 6.5 6.5 6.5 6.5 6.5 6.5 6.5 6.5 6.5
7.9 7.6 7.7 7.8 7.4 6.7 4.9 3.3 2.2 1.5 1.6 1.4 1.1 0.8 0.7 0.9 0.8 0.8 -0.8 2.7 5.3 4.6 4.1 4.2 5.0 5.6 5.5 5.3 5.7 4.7 3.7 5.2 5.0 6.5 6.2 6.5 6.5 6.5 6.5 6.5 6.5 6.5 6.5 6.5 6.5 6.5 6.5
7.6 7.7 7.5 7.7 7.6 7.2 6.8 5.6 3.5 2.1 1.4 1.1 1.2 0.7 0.0 1.1 1.9 0.3 0.1 2.7 2.0 3.1 5.1 4.0 5.8 5.8 5.9 6.0 5.5 5.3 4.5 5.0 6.0 6.5 6.5 6.5 6.5 6.3 6.5 6.5 6.5 6.5 6.5 6.5 6.5 6.5 6.5
7.7 7.6 7.4 7.3 7.5 7.3 7.0 6.6 5.6 3.7 2.2 1.4 1.0 1.2 1.0 1.1 2.7 -0.9 2.8 0.9 0.8 1.7 6.5 6.5 6.3 6.3 6.6 5.7 6.2 5.6 5.3 5.6 5.9 6.5 6.5 6.5 6.4 6.5 6.5 6.5 6.5 6.5 6.5 6.5 6.5 6.5 6.5
7.9 7.6 7.5 7.2 7.2 7.2 6.9 6.7 6.2 5.1 3.4 2.0 1.2 1.2 1.1 1.9 0.5 2.1 2.5 0.3 0.6 2.5 6.5 6.5 6.4 6.7 6.2 6.0 6.2 6.6 4.9 5.0 6.5 6.5 6.5 6.5 6.5 6.5 6.5 6.5 6.5 6.5 6.5 6.5 6.5 6.5 6.5
8.2 7.8 7.5 7.3 7.1 7.0 7.0 6.8 6.5 5.7 4.4 3.1 1.9 1.3 1.0 2.5 0.5 1.8 0.8 0.1 1.4 6.5 6.5 6.5 6.3 6.5 6.4 6.2 6.2 5.6 5.6 3.9 4.9 6.5 6.5 6.5 6.1 6.4 6.5 6.5 6.5 6.4 6.5 6.5 6.5 6.5 6.5
7.8 8.1 7.8 7.4 7.1 6.9 7.0 6.9 6.7 6.2 5.5 4.1 2.6 1.2 1.1 2.9 4.1 1.7 0.3 0.9 6.5 6.5 6.5 6.5 6.5 6.5 6.5 6.5 6.5 6.4 6.5 6.5 6.5 6.5 6.5 6.5 6.5 6.4 6.1 6.5 6.5 6.5 6.5 6.5 6.5 6.5 6.5
8.1 7.7 8.0 7.6 7.4 7.0 6.9 6.8 6.7 6.3 5.8 5.2 3.6 1.3 2.1 2.6 2.6 1.9 1.1 5.8 6.5 6.5 6.5 6.5 6.5 6.5 6.5 6.5 6.5 6.5 6.5 6.5 6.5 6.5 6.5 6.5 6.5 6.5 6.4 6.5 6.5 6.5 6.5 6.5 6.5 6.5 6.5
8.4 8.0 7.8 7.7 7.3 7.1 6.9 6.8 6.6 6.5 6.1 5.6 4.7 2.6 2.7 2.2 2.6 3.2 3.9 6.5 6.5 6.5 6.5 6.5 6.5 6.5 6.5 6.5 6.5 6.5 6.5 6.5 6.5 6.5 6.5 6.5 6.5 6.5 6.5 6.4 6.5 6.5 6.5 6.5 6.5 6.5 6.5
8.8 8.4 7.7 7.6 7.3 7.1 6.8 6.7 6.6 6.6 6.3 6.1 4.5 5.6 5.5 2.6 2.2 4.3 6.2 6.5 6.5 6.2 6.3 6.5 6.5 6.5 6.5 6.5 6.5 6.5 6.5 6.5 6.5 6.2 5.8 6.5 6.5 6.5 6.5 6.4 6.2 6.5 6.5 6.5 6.5 6.5 6.5
8.7 8.5 8.0 7.7 7.4 7.0 6.9 6.8 6.6 6.5 6.5 6.3 6.3 6.2 5.0 2.3 3.7 5.4 6.5 6.5 6.5 4.8 5.6 6.5 6.5 6.5 6.5 6.5 6.5 6.5 6.5 6.5 6.5 6.5 5.8 6.5 6.5 6.5 6.5 6.5 6.5 6.5 6.5 6.5 6.5 6.5 6.5
8.1 8.0 7.9 7.6 7.6 7.3 7.0 6.9 6.7 6.5 6.7 5.5 6.0 6.5 4.2 3.6 6.1 6.1 6.5 6.5 5.5 6.3 4.9 6.3 6.1 6.5 6.5 6.5 6.5 6.5 6.5 6.5 5.3 5.5 6.5 6.5 6.5 6.5 6.5 6.5 6.5 6.5 6.5 6.5 6.5 6.5 6.5
7.8 7.8 7.7 7.7 7.5 7.4 7.1 6.9 6.8 6.5 6.8 5.2 6.3 6.3 4.2 4.3 6.5 6.5 6.5 6.5 6.1 6.5 6.4 6.5 6.5 6.5 6.5 6.5 6.5 6.5 6.5 6.1 5.0 6.4 6.5 6.5 6.5 6.5 6.5 6.5 6.5 6.5 6.5 6.5 6.5 6.5 6.5
8.2 7.9 7.7 7.8 7.7 7.5 7.3 7.0 6.9 6.4 6.7 6.7 6.2 6.5 4.9 5.2 5.5 6.5 6.5 6.5 6.5 5.5 6.1 5.6 6.3 6.0 6.5 6.5 6.5 6.5 6.5 6.4 5.4 5.7 3.5 4.2 6.5 6.5 6.5 6.5 6.5 6.5 6.5 6.5 6.5 6.5 6.5
8.0 7.9 7.8 7.7 7.8 7.6 7.3 7.1 6.9 6.5 6.7 6.7 6.5 5.9 6.1 6.5 6.5 6.5 6.4 6.5 6.5 6.5 6.1 5.4 6.5 6.5 6.5 6.5 6.5 6.5 6.5 6.5 6.2 5.5 5.4 6.4 6.5 6.5 6.5 6.5 6.5 6.5 6.5 6.5 6.5 6.5 6.5
8.0 7.9 7.7 7.6 7.6 7.5 7.2 7.1 7.0 6.6 6.8 6.3 6.4 6.6 6.3 6.4 6.3 6.5 6.5 6.5 6.5 6.5 6.4 6.5 6.5 6.5 6.5 6.5 6.5 6.5 6.5 6.5 6.5 6.3 6.5 6.4 6.5 6.5 6.5 6.5 6.5 6.5 6.5 6.5 6.5 6.5 6.5
8.1 7.9 7.8 7.6 7.7 7.6 7.3 7.0 6.9 6.8 7.2 6.2 7.0 6.9 6.6 6.6 6.4 6.5 6.5 6.5 6.5 6.5 5.9 5.6 5.8 6.5 6.5 6.3 3.9 4.9 4.0 3.4 4.9 6.4 6.5 6.5 6.5 6.5 6.5 6.5 6.5 6.5 6.5 6.5 6.5 6.5 6.5
8.0 8.2 8.1 8.2 8.0 7.7 7.3 7.2 7.0 6.8 7.2 5.2 6.6 6.8 6.5 6.5 6.5 6.5 6.5 6.4 6.5 6.5 6.5 6.1 5.2 6.0 4.8 0.8 2.9 3.3 3.1 4.0 4.4 5.4 4.8 6.5 6.5 6.5 6.5 6.5 6.5 6.5 6.5 6.5 6.5 6.5 6.5
7.9 8.1 8.2 8.4 8.1 7.7 7.4 7.1 7.0 6.9 7.0 5.2 5.6 7.2 6.8 6.5 6.6 6.3 6.2 6.4 6.4 5.9 6.5 6.3 5.6 4.1 1.1 1.9 6.5 6.5 6.5 6.5 6.5 6.4 6.4 5.8 6.5 6.5 6.5 6.5 6.5 6.5 6.5 6.5 6.5 6.5 6.5
7.9 8.2 8.3 8.3 7.9 7.6 7.4 7.2 7.1 7.1 6.9 5.7 5.0 6.8 7.0 7.0 6.4 6.6 6.2 6.0 6.5 6.5 6.5 6.0 3.9 2.3 1.2 4.9 6.5 6.5 6.5 6.5 6.5 6.5 6.2 6.5 6.5 6.5 6.5 6.5 6.5 6.5 6.5 6.1 6.2 6.5 6.3
7.9 8.2 8.3 8.1 7.8 7.5 7.5 7.4 7.3 7.3 7.0 5.7 5.0 7.3 6.8 6.4 6.4 6.5 5.8 6.1 6.2 6.3 6.5 5.5 5.9 5.9 3.8 6.5 6.5 6.5 6.5 6.5 6.5 6.5 6.5 6.5 6.5 6.5 6.5 6.5 6.5 6.5 5.2 5.6 6.5 6.5 5.8
8.2 8.2 8.1 8.0 7.8 7.6 7.7 7.7 7.6 7.7 7.3 6.7 5.8 7.2 6.4 6.6 6.8 7.0 5.0 6.0 6.2 6.2 6.5 5.6 5.8 3.7 4.9 6.5 6.5 6.5 6.5 6.5 6.5 6.5 6.5 6.5 6.5 6.5 6.5 6.5 6.5 5.0 6.4 6.5 5.4 4.1 4.8
8.1 8.1 8.0 7.9 7.8 7.7 7.7 7.6 7.6 7.9 7.5 7.3 6.4 6.7 7.5 6.7 6.1 5.6 5.1 5.2 6.1 6.3 6.0 4.2 4.7 4.3 1.5 6.5 6.5 6.5 6.5 6.5 6.5 6.5 6.5 6.5 6.5 6.5 6.5 6.5 4.8 4.5 5.3 4.3 2.5 3.0 3.4
Wind_Speed
14 15 16 16 16 17 19 21 23 22 19 18 20 22 22 23 24 26 27 26 26 27 27 25 24 25 7 5 2 9 24 13 9 7 4 6 7 6 6 5 10 9 4 6 7 10 5
14 14 16 17 17 16 18 19 21 23 23 21 21 23 24 25 25 27 28 28 27 28 27 23 20 21 1 5 6 16 12 4 5 4 4 3 7 15 10 5 6 6 12 5 6 5 4
13 15 15 16 17 18 18 20 20 22 25 22 22 22 25 26 26 28 30 30 29 29 25 20 13 3 3 3 6 18 7 6 4 4 8 4 6 6 8 13 3 6 10 7 5 4 2
11 12 14 16 16 17 19 20 20 21 23 23 21 23 25 28 28 30 32 34 33 27 20 14 8 1 1 2 9 7 8 11 10 13 13 7 10 11 6 10 6 5 5 4 2 2 2
11 11 12 14 16 17 17 18 19 21 23 25 22 22 26 28 30 33 35 37 30 15 12 7 2 3 1 10 5 7 6 6 5 7 8 9 8 6 5 9 5 6 3 2 1 5 3
10 12 12 12 14 15 15 17 19 21 22 23 25 21 24 29 31 34 39 32 14 9 5 1 2 5 6 3 5 6 4 3 5 4 6 8 7 4 3 3 4 5 4 2 4 5 4
9 11 11 12 13 13 14 17 18 20 20 23 24 24 23 27 31 35 16 5 6 7 9 2 5 2 4 8 3 6 4 2 4 8 4 3 6 7 14 3 5 7 5 5 2 3 4
8 9 11 13 14 13 14 16 17 19 20 21 23 25 24 25 30 28 4 5 3 2 5 4 4 3 4 2 4 7 6 4 4 5 4 6 3 1 3 3 7 5 3 3 3 3 6
9 8 10 13 15 14 15 16 17 18 18 20 23 24 23 24 27 5 4 4 10 2 1 6 2 2 4 3 1 4 5 2 4 2 5 6 4 3 6 4 3 3 4 5 4 4 1
10 9 9 10 14 14 15 15 15 17 19 20 23 23 23 25 4 5 2 8 12 3 5 5 2 2 1 2 2 2 3 2 5 4 5 5 0 6 4 4 4 3 7 6 8 4 2
10 10 9 9 11 14 15 14 14 15 18 19 21 22 21 9 2 2 5 17 9 3 4 4 1 2 2 4 1 2 4 4 4 3 3 4 3 5 4 4 4 2 5 6 4 4 3
10 11 10 10 11 12 15 14 14 16 16 18 18 20 21 2 1 5 19 8 4 6 5 1 1 2 3 3 3 4 4 6 4 4 5 2 1 2 2 2 2 6 6 8 5 3 2
10 11 10 10 11 13 14 14 14 16 18 18 18 20 14 4 2 12 10 4 5 5 3 3 3 3 2 2 2 3 4 3 4 4 0 3 2 3 2 4 3 6 6 3 3 3 5
12 11 10 10 11 13 14 13 14 16 19 19 20 21 4 6 2 12 4 5 4 5 5 1 3 3 4 3 1 1 2 1 0 4 3 5 2 1 3 2 5 3 5 5 5 3 4
14 12 13 12 13 13 15 14 14 15 19 20 23 2 2 4 7 1 4 3 8 7 5 8 3 4 3 1 3 2 3 3 6 6 5 5 1 3 4 2 2 4 3 3 6 3 2
15 14 12 14 12 13 14 14 13 14 18 17 4 3 3 4 10 4 2 6 5 4 4 3 8 3 6 6 4 5 5 4 3 5 2 5 4 2 2 1 4 1 4 3 3 2 4
15 15 13 13 13 12 14 14 13 13 17 16 2 3 0 8 5 4 4 6 5 6 4 5 6 4 5 6 6 4 3 2 1 2 3 4 4 3 1 1 5 2 1 5 3 3 4
16 15 15 14 14 14 14 14 12 11 13 6 3 3 1 3 3 3 4 4 3 3 3 2 5 3 7 7 4 5 6 3 3 4 6 1 5 3 1 2 1 2 4 5 4 4 1
18 17 17 17 15 15 16 14 13 10 7 3 3 3 2 3 4 2 1 4 4 3 5 6 4 3 3 6 4 4 4 0 3 3 7 6 1 2 3 4 4 2 2 4 4 3 6
20 19 19 19 16 17 17 15 14 10 8 2 3 2 0 2 3 7 8 6 6 3 3 4 4 4 4 3 3 5 4 1 3 2 4 7 3 5 6 4 4 2 4 2 5 3 4
22 22 21 20 18 18 18 16 14 11 8 2 3 4 3 4 4 4 11 7 10 7 3 3 2 5 7 4 3 3 2 2 3 2 3 3 3 2 2 2 3 3 3 7 7 6 6
25 24 22 20 18 17 18 18 16 12 10 2 3 3 2 1 7 14 6 8 7 14 6 5 5 6 5 7 8 9 6 4 4 2 3 3 2 2 2 2 2 4 8 9 7 2 7
27 25 23 22 20 19 19 19 19 15 12 3 3 3 2 3 4 10 7 10 12 6 5 4 7 6 5 5 6 1 3 4 5 7 3 3 5 3 3 3 2 6 8 6 5 5 5
28 26 25 22 21 20 20 21 22 18 16 3 2 3 3 3 8 11 10 15 13 9 6 3 2 7 5 8 7 7 9 9 8 6 3 5 5 2 2 3 1 6 3 4 7 6 8
28 26 25 23 22 22 21 23 23 19 17 4 2 1 2 4 6 6 9 9 6 2 3 4 2 4 12 6 5 5 5 6 5 6 4 3 5 3 4 3 6 6 1 3 5 3 2
28 27 26 24 23 22 22 23 22 19 16 4 3 2 1 3 4 2 7 6 5 5 4 4 4 2 5 4 4 4 4 5 3 2 4 6 6 4 2 4 5 6 4 1 2 4 1
27 27 26 24 23 23 22 23 21 19 16 5 2 8 2 3 5 5 3 7 5 4 4 2 2 4 3 3 3 3 3 5 5 8 5 3 3 5 2 2 7 6 6 2 4 6 0
26 26 25 24 23 23 22 20 18 19 16 8 2 8 4 3 8 7 7 0 5 6 5 4 2 3 3 4 4 4 3 6 4 4 6 6 6 3 3 2 6 5 4 6 5 2 2
25 25 25 23 24 23 24 21 18 20 17 12 3 7 8 2 4 8 13 11 9 7 9 3 3 4 6 4 1 4 3 2 6 3 1 3 6 5 8 6 4 4 2 2 4 4 3
Wind_Direction
11 5 2 9 14 16 14 11 9 357 340 340 340 339 341 339 337 334 333 334 331 326 322 324 328 328 342 35 331 291 330 333 130 120 72 110 68 103 97 113 62 74 93 40 97 99 98
7 2 2 3 6 12 11 5 9 6 357 340 338 337 339 336 334 334 329 330 327 322 320 320 327 328 355 67 297 323 333 18 51 79 50 56 133 117 83 54 61 88 93 79 37 59 108
7 3 1 2 5 9 10 7 8 4 3 354 337 337 337 335 334 332 328 325 321 317 315 315 326 349 38 207 332 324 26 24 8 85 92 41 132 82 128 97 47 90 89 68 27 359 98
349 351 356 358 359 5 8 7 5 7 1 359 348 336 336 335 337 331 325 320 315 313 316 319 313 34 227 306 323 2 352 52 55 70 93 86 75 89 91 125 65 75 60 93 250 214 137
342 339 344 347 355 356 1 5 4 4 1 359 354 344 335 335 337 333 325 318 311 320 313 323 27 49 285 333 28 319 9 101 84 57 64 73 70 78 41 106 68 24 147 113 196 175 117
344 344 342 341 346 351 358 1 2 1 358 358 357 348 341 336 335 332 326 317 306 344 1 26 66 47 357 317 307 333 336 23 90 75 48 50 60 76 46 70 160 160 136 193 181 201 101
334 340 339 342 343 350 352 354 360 357 357 358 354 354 343 340 333 333 343 6 14 356 35 116 269 246 301 295 303 353 355 22 50 47 79 37 100 184 184 167 116 123 134 160 234 196 129
328 341 339 340 338 343 349 351 355 355 353 355 350 358 346 342 332 334 356 64 63 246 322 302 261 272 246 303 2 334 5 77 61 112 101 40 89 159 69 92 103 116 108 201 79 129 161
319 324 334 331 328 331 337 342 344 349 352 352 349 353 352 338 332 17 344 64 324 292 184 301 260 273 280 45 159 298 19 64 95 87 110 127 179 88 161 301 18 112 165 189 146 131 77
311 321 324 326 325 329 334 338 343 346 350 353 346 350 355 337 52 323 345 325 326 240 60 279 250 297 48 95 317 293 24 100 43 159 122 112 144 146 128 260 142 249 183 133 132 107 217
308 312 312 318 321 322 330 335 338 344 347 348 347 342 349 15 278 342 304 325 322 48 37 290 237 292 30 132 326 346 329 43 125 123 93 220 129 128 139 206 203 236 123 118 104 74 81
288 302 306 311 314 317 321 326 336 339 340 342 341 334 340 86 36 274 320 330 38 44 255 257 192 133 100 32 18 330 22 50 124 74 28 89 120 74 123 84 67 167 73 49 61 70 356
300 288 297 303 306 309 311 318 329 332 333 333 332 328 323 312 250 329 323 39 47 131 283 212 187 140 116 122 81 50 357 54 137 100 212 5 10 353 72 93 46 62 59 14 358 7 230
291 299 296 295 295 300 303 308 320 328 328 325 327 321 288 251 166 357 31 56 103 235 213 307 115 91 156 153 101 87 75 207 242 97 118 145 272 177 6 117 170 150 149 155 213 196 268
275 287 298 298 297 295 297 301 311 325 324 328 328 284 262 266 213 74 80 98 202 205 187 152 73 111 184 205 136 96 146 235 219 174 144 134 212 337 31 14 86 187 188 165 105 23 55
272 275 285 292 291 291 292 296 305 319 321 332 324 298 242 150 135 92 91 221 225 209 162 127 169 150 174 188 140 149 177 217 237 190 132 188 95 14 336 44 23 100 138 73 357 153 251
260 269 275 280 290 290 289 289 295 309 324 328 285 262 100 145 104 90 198 228 237 239 182 151 171 147 184 176 150 165 219 281 159 113 81 137 104 287 70 161 187 60 38 46 109 124 183
255 258 268 275 280 284 282 281 283 300 326 336 276 235 74 202 145 196 157 201 241 237 182 183 118 119 166 170 145 186 213 239 21 162 143 84 127 156 157 68 351 189 173 143 121 244 237
245 249 254 265 270 275 273 270 270 283 310 313 261 264 24 295 163 207 69 247 249 208 195 171 154 149 179 167 150 180 168 240 33 146 156 186 12 65 352 14 347 210 93 96 105 88 199
235 240 247 253 261 265 265 258 256 259 283 256 287 240 111 191 341 145 179 220 252 226 208 150 136 111 111 115 43 174 153 16 6 86 58 95 126 159 186 197 145 179 188 122 128 136 187
234 237 241 246 253 258 260 255 246 246 255 229 247 251 220 200 216 171 190 169 200 251 231 198 73 167 151 123 96 157 139 117 63 31 66 97 153 118 211 122 197 204 162 181 190 203 179
231 232 239 241 245 251 257 250 239 237 231 227 273 260 236 255 156 197 190 202 182 213 180 235 161 180 151 151 176 193 147 188 187 65 90 27 145 93 19 14 237 284 247 217 224 246 258
230 230 232 236 241 245 250 245 239 221 206 220 251 267 249 163 176 179 192 173 197 239 265 221 167 124 149 208 167 152 121 113 159 145 123 109 126 106 239 9 23 311 246 212 199 204 172
231 229 231 231 235 241 244 240 235 225 209 188 309 310 292 249 191 198 182 202 202 159 259 17 143 130 193 119 106 56 56 67 69 51 107 128 102 89 184 40 356 241 229 197 206 231 216
229 227 229 233 236 238 239 236 233 225 225 201 251 288 355 283 224 173 184 188 199 147 230 325 282 301 153 74 73 56 360 27 7 28 54 94 118 83 137 207 290 309 331 142 177 295 143
227 224 225 229 233 236 238 231 227 220 221 193 240 175 235 319 258 297 182 177 163 178 167 299 340 51 42 87 84 133 176 180 202 86 60 74 69 112 153 146 228 234 255 256 85 293 279
224 222 223 226 228 234 235 226 223 210 210 176 236 188 148 258 274 319 190 183 130 132 143 264 245 222 35 98 99 145 197 167 161 166 170 96 37 154 144 213 288 240 227 355 93 232 130
221 220 221 224 227 232 222 213 216 205 200 183 232 208 162 246 275 303 329 315 148 161 146 212 50 326 39 76 125 198 136 206 123 169 176 163 143 181 84 85 277 189 89 164 205 169 125
216 216 219 220 225 223 209 206 224 207 200 184 236 209 183 240 281 319 278 276 269 203 158 142 207 223 186 92 131 112 113 104 152 208 43 200 179 177 179 211 234 223 198 117 150 138 135